Regional Weather Roundup
Issued by NWS Midland/Odessa, TX

Skip options and go directly to product.
Home | Oldest Version | Previous Version | Current Version | All | Text Only | Save Text | Print | Product List | Glossary Off

Skip product version selection by date and time.   

728
ASUS44 KMAF 031210
RWRMAF
MIDLAND AREA WEATHER ROUNDUP
NATIONAL WEATHER SERVICE MIDLAND TX
600 AM CST TUE MAR 03 2015

...IN SOUTHWEST TEXAS AND SOUTHEAST NEW MEXICO...

CITY           SKY/WX    TMP DP  RH WIND       PRES   REMARKS
ALPINE         CLOUDY    51  36  56 W7        29.99S
ANDREWS        FOG       40  40 100 S6        29.92S VSB 1/2 WCI  36
ARTESIA        CLOUDY    37  37 100 S6G15     29.90S FOG     WCI  33
BIG SPRING     CLOUDY   N/A N/A N/A S8        29.95S
CARLSBAD       CLOUDY    39  37  92 SE6       29.89S FOG     WCI  35
DRYDEN           N/A     46  43  89 SW5       29.96S
FORT STOCKTON  PTCLDY    34  34 100 W8        29.91S WCI  27
GUAD PASS      NOT AVBL
HOBBS          FOG       37  37 100 CALM      29.91S VSB 1/4
MARFA          CLOUDY    45  37  76 CALM      29.97S
MIDLAND AIRPK  CLOUDY    44  44 100 S13       29.93R FOG     WCI  37
MIDLAND INTL   FOG       43  42  97 S10       29.91S VSB 1/2 WCI  37
ODESSA         FOG       42  41  96 S9        29.92S VSB 1/4 WCI  37
PECOS          MOCLDY    38  37  93 CALM      29.91F
PRESIDIO       FAIR      52  40  65 MISG      29.92R
SEMINOLE       FOG       39  39 100 S6        29.92R VSB 3/4 WCI  35
SNYDER         FOG       37  37  99 SW8       29.94S VSB 1/2 WCI  31
WINK           FOG       41  38  89 S6        29.91R VSB 3/4 WCI  37
$$
...OTHER STATIONS IN TEXAS...

CITY           SKY/WX    TMP DP  RH WIND       PRES   REMARKS
ABILENE        CLOUDY    43  41  93 VRB3      29.94R
AMARILLO       CLOUDY    37  34  89 SW16      29.85S WCI  28
AUSTIN         FOG       42  42 100 N6        30.04S VSB 1/2 WCI  38
BROWNSVILLE    FOG       57  57 100 CALM      30.00S VSB 1/4
CORPUS CHRISTI DRZL/FOG  54  54 100 CALM      30.01R VSB 1/2
DALLAS FTW     CLOUDY    40  40 100 S6        30.03S FOG     WCI  36
DEL RIO        CLOUDY    48  46  93 SE7       29.99R
EL PASO        CLOUDY    56  46  69 W7        29.88S
HOUSTON INT    FOG       58  58 100 E6        30.03F VSB 1/8
LUBBOCK        CLOUDY    37  37 100 SW10      29.88F FOG     WCI  30
SAN ANGELO     FOG       40  39  97 NE3       29.94F VSB 3/4
SAN ANTONIO    LGT RAIN  48  47  96 CALM      30.03R FOG
WACO           CLOUDY    40  40 100 N3        30.05F FOG
WICHITA FALLS  NOT AVBL
$$
...OTHER LOCATIONS IN NEW MEXICO...

CITY           SKY/WX    TMP DP  RH WIND       PRES   REMARKS
ALAMAGORDO     LGT RAIN  50  48  93 SE10      29.90S
ALBUQUERQUE    CLOUDY    42  29  59 SW6       29.94R WCI  38
CANNON AFB     CLOUDY    35  34  97 W8        29.86S WCI  28
CLOVIS         CLOUDY    36  32  87 NW5       29.87R WCI  32
HOLLOMAN AFB   DRIZZLE   52  48  87 CALM      29.89R
ROSWELL        FOG       37  35  92 S9        29.88R VSB 3/4 WCI  30
RUIDOSO        CLOUDY    43  36  75 SW20      29.92R WCI  34
SANTA FE       CLOUDY    34  29  82 SW5       29.91R WCI  30
TRUTH OR CONSE CLOUDY    49  39  68 CALM      29.88S
TUCUMCARI      MOCLDY    37  33  85 S7        29.82S WCI  32
$$

USA.gov is the U.S. government's official web portal to all federal, state and local government web resources and services.